Taunton, MA

5:26 AM EDT on August 22, 2017 (GMT -0400)
Taunton Municipal

Weather History for KTAN - August, 2014

Change the Weather History Date:

Sunday, August 24, 2014

  Actual Average Record
Temperature  
Mean Temperature 64 °F -  
Max Temperature 79 °F 79 °F 90 °F (1974)
Min Temperature 48 °F 55 °F 40 °F (1957)
Degree Days  
Heating Degree Days 2    
Growing Degree Days 14 (Base 50)    
Moisture  
Dew Point 52 °F    
Average Humidity 76    
Maximum Humidity 100    
Minimum Humidity 39    
Precipitation  
Precipitation 0.00 in - - ()
Sea Level Pressure  
Sea Level Pressure 30.12 in    
Wind  
Wind Speed 1 mph (NE)    
Max Wind Speed 10 mph    
Max Gust Speed -    
Visibility 7 miles    
Events Fog    
Averages and records for this station are not official NWS values.
T = Trace of Precipitation, MM = Missing Value Source: NWS Daily Summary

Daily Weather History Graph

Daily Weather History Graph

Search for Another Location

Airport or City:

Trip Planner

Search our weather history database for the weather conditions in past years. The results will help you decide how hot, cold, wet, or windy it might be!

Date:

Astronomy

Aug. 24, 2014 Rise Set
Actual Time 6:01 AM EDT 7:30 PM EDT
Civil Twilight 5:32 AM EDT 7:59 PM EDT
Nautical Twilight 4:56 AM EDT 8:34 PM EDT
Astronomical Twilight 4:19 AM EDT 9:12 PM EDT
Moon 5:09 AM EDT (8/24) 6:46 PM EDT (8/24)
Length of Visible Light 14h 27m
Length of Day
13h 29m
Waning Crescent, 1% of the Moon is Illuminated
Aug 24
Waning Crescent
Aug 25
New
Sep 2
First Quarter
Sep 8
Full
Sep 15
Last Quarter

Hourly Weather History & Observations

Time (EDT) Temp. Dew Point Humidity Pressure Visibility Wind Dir Wind Speed Gust Speed Precip Events Conditions
12:16 AM 50.0 °F 48.9 °F 96% 30.12 in 1.2 mi Calm Calm - N/A   Clear
12:50 AM 48.2 °F 48.2 °F 100% 30.12 in 0.8 mi Calm Calm - N/A   Mist
12:51 AM 48.9 °F 48.0 °F 97% 30.12 in 0.5 mi Calm Calm - N/A Fog Fog
1:07 AM 48.9 °F 48.0 °F 97% 30.11 in 0.5 mi Calm Calm - N/A Fog Fog
1:52 AM 48.0 °F 48.0 °F 100% 30.12 in 0.5 mi Calm Calm - N/A Fog Fog
2:00 AM 48.9 °F 48.0 °F 97% 30.12 in 1.5 mi Calm Calm - N/A   Mostly Cloudy
2:03 AM 50.0 °F 48.0 °F 93% 30.12 in 3.0 mi Calm Calm - N/A   Mostly Cloudy
2:52 AM 48.9 °F 48.0 °F 97% 30.12 in 5.0 mi Calm Calm - N/A   Scattered Clouds
3:52 AM 52.0 °F 50.0 °F 93% 30.12 in 10.0 mi Calm Calm - N/A   Overcast
5:06 AM 52.0 °F 51.1 °F 97% 30.11 in 10.0 mi Calm Calm - N/A   Mostly Cloudy
5:52 AM 52.0 °F 51.1 °F 97% 30.12 in 10.0 mi Calm Calm - N/A   Overcast
6:52 AM 55.9 °F 54.0 °F 93% 30.13 in 10.0 mi Calm Calm - N/A   Mostly Cloudy
7:52 AM 63.0 °F 57.0 °F 81% 30.13 in 10.0 mi Calm Calm - N/A   Clear
8:52 AM 69.1 °F 55.0 °F 61% 30.14 in 10.0 mi North 5.8 mph - N/A   Clear
9:52 AM 72.0 °F 55.9 °F 57% 30.14 in 10.0 mi ENE 5.8 mph - N/A   Clear
10:52 AM 73.0 °F 55.0 °F 53% 30.14 in 10.0 mi NNE 5.8 mph - N/A   Clear
12:52 PM 77.0 °F 53.1 °F 43% 30.13 in 10.0 mi North 8.1 mph - N/A   Clear
1:52 PM 79.0 °F 52.0 °F 39% 30.13 in 10.0 mi East 10.4 mph - N/A   Clear
2:52 PM 79.0 °F 52.0 °F 39% 30.12 in 10.0 mi ENE 9.2 mph - N/A   Clear
3:52 PM 78.1 °F 52.0 °F 40% 30.11 in 10.0 mi Variable 4.6 mph - N/A   Clear
4:52 PM 78.1 °F 52.0 °F 40% 30.11 in 10.0 mi NNE 8.1 mph - N/A   Clear
5:52 PM 77.0 °F 53.1 °F 43% 30.11 in 10.0 mi ESE 4.6 mph - N/A   Clear
6:52 PM 73.0 °F 55.0 °F 53% 30.11 in 10.0 mi Calm Calm - N/A   Clear
7:52 PM 61.0 °F 55.9 °F 83% 30.12 in 10.0 mi Calm Calm - N/A   Clear
8:52 PM 57.9 °F 55.0 °F 90% 30.13 in 10.0 mi Calm Calm - N/A   Clear
11:52 PM 54.0 °F 52.0 °F 93% 30.13 in 9.0 mi Calm Calm - N/A   Clear